カタログに戻る

FENGYUN 1C DEB

運用中SSO
NORAD 29935·DEBRIS·🇨🇳 China

打ち上げ May 10, 1999 から Taiyuan Satellite Launch Center

Loading…

次のパス (今後24時間)

TLE

最新Source: Space-Track

元期: Sep 14, 2026, 10:13 UTC

1 29935U 99025JH  26257.42589304  .00000106  00000-0  68102-4 0  9998
2 29935  98.4235 309.6188 0151354 142.9259 286.7164 14.14344953 14396

AllMySatでFENGYUN 1C DEBをリアルタイム追跡

Download on the App Store